Theta_e
344 339 334 334 318 311 305 309 314 313 314 320 323 320 318 322 319 310 331 337 344 345 348 350 353 351 351 351 348 346 346 346 344 341 338 337 336 336 335 333 334 336 336 336 336 336 336 336 336
335 335 335 325 310 302 304 313 311 314 319 324 325 323 322 318 324 330 333 341 344 346 346 348 352 351 351 348 345 343 341 341 342 340 338 336 336 337 333 332 334 335 335 335 335 335 335 335 335
336 338 322 318 310 303 304 313 314 317 322 324 323 326 324 319 326 332 337 342 344 345 346 347 353 351 349 345 342 339 339 338 336 338 338 335 337 333 332 333 335 334 334 334 334 334 334 334 334
333 328 324 314 308 313 314 315 319 317 320 323 324 321 328 333 331 336 341 343 342 344 347 352 353 351 347 343 340 339 337 336 337 336 337 337 334 332 334 332 332 333 332 332 332 332 332 333 334
328 322 309 307 312 317 318 314 316 313 319 323 326 320 323 331 339 341 343 345 343 344 345 349 353 349 345 342 340 337 336 336 339 340 339 335 333 331 331 331 333 330 329 330 331 331 331 331 331
320 320 307 305 306 311 312 315 314 315 322 323 323 322 322 332 341 344 346 345 344 344 346 348 352 348 344 342 338 336 333 333 333 333 333 332 333 331 332 331 332 329 329 330 332 332 333 333 334
319 314 310 308 306 311 311 313 311 313 318 321 327 320 323 328 334 344 344 343 342 345 345 346 344 342 344 342 338 336 334 333 331 330 329 330 332 334 333 333 333 330 330 331 333 334 336 336 337
322 317 312 310 306 306 314 315 315 316 315 329 331 320 318 327 333 342 343 340 339 343 345 342 339 336 333 333 339 337 335 334 332 330 331 333 333 334 336 336 335 332 331 333 335 336 337 338 340
323 308 303 305 308 309 313 314 319 322 319 320 325 327 328 331 329 326 335 334 338 341 340 340 336 332 331 330 334 339 337 335 333 331 334 325 327 323 329 336 337 336 332 335 336 337 339 337 330
314 305 305 313 314 311 314 317 319 319 317 322 327 329 330 329 323 318 323 321 328 337 338 338 335 331 330 333 329 330 329 327 325 322 322 319 319 320 326 331 337 334 335 333 331 332 331 325 316
311 305 309 314 318 315 315 317 320 317 314 324 324 324 326 325 322 316 316 316 316 326 337 337 334 332 329 329 327 327 326 325 323 322 320 320 319 319 319 316 317 317 323 316 318 318 316 314 315
310 315 316 316 318 315 317 323 322 321 322 326 328 326 324 323 321 319 317 316 313 315 326 328 335 331 328 327 327 328 325 325 326 320 319 320 318 319 320 316 315 314 315 316 314 315 315 315 317
313 315 318 319 318 319 325 323 323 324 327 327 326 325 323 322 322 318 316 314 314 314 321 325 328 328 328 326 326 324 323 325 322 320 320 320 318 318 320 319 317 315 316 317 314 314 315 315 315
317 315 315 318 319 320 320 320 325 325 330 329 326 323 323 323 322 318 313 314 314 318 323 327 329 326 327 325 324 323 320 323 322 321 321 323 319 318 319 319 316 316 317 316 315 314 315 315 314
318 313 316 316 320 318 320 315 316 328 330 326 326 323 323 323 323 318 317 316 317 320 324 325 326 325 323 323 323 323 321 325 321 320 322 322 320 318 320 318 315 316 318 315 315 315 316 316 317
313 312 306 315 318 320 317 311 324 329 328 326 328 328 324 322 323 320 320 320 319 320 322 323 329 325 325 322 322 322 322 320 322 322 322 323 321 320 319 318 316 317 316 314 314 314 315 315 314
306 302 307 312 319 320 319 313 324 326 324 323 324 327 327 327 322 321 323 321 321 321 322 322 324 323 323 323 322 322 320 318 319 322 324 322 323 323 317 320 319 318 316 315 315 314 314 313 314
303 302 304 306 317 317 314 315 321 324 322 321 323 326 326 325 326 323 325 323 321 321 322 321 321 323 324 323 321 322 320 319 320 321 322 323 322 323 318 320 321 318 316 315 314 312 313 313 313
310 307 306 310 318 315 313 314 318 322 326 324 324 320 319 322 327 326 327 325 323 322 321 322 321 322 324 320 318 317 318 318 319 322 324 323 322 323 318 319 318 316 317 316 315 313 312 311 313
310 307 307 312 316 312 313 312 317 317 320 320 324 321 319 321 322 326 326 324 323 321 322 322 323 324 323 320 319 322 319 320 322 322 323 322 323 322 321 319 318 316 316 316 315 313 311 310 313
305 304 306 307 313 314 311 309 310 317 321 324 325 324 324 322 321 325 325 323 323 322 322 322 323 323 323 321 322 320 319 320 319 320 321 322 324 323 322 320 320 315 316 314 315 313 312 310 312
299 310 312 311 305 301 310 297 308 313 318 321 320 322 322 321 326 327 324 324 324 325 327 325 323 324 323 322 321 318 319 316 320 320 323 323 325 324 322 320 319 316 315 314 315 318 314 312 311
305 312 311 310 305 303 308 301 307 313 313 316 320 322 323 320 326 326 324 326 327 328 328 327 324 323 324 324 325 324 318 321 322 321 320 319 320 321 323 321 320 318 316 316 318 317 315 314 313
310 309 306 305 301 296 302 303 303 308 312 317 318 319 322 323 326 325 326 328 327 329 328 328 326 325 326 324 326 326 322 321 321 319 318 320 319 321 322 321 318 318 317 318 318 318 317 317 315
306 301 294 294 294 295 304 301 304 311 318 318 318 319 322 322 327 326 325 325 326 327 327 329 327 328 329 330 328 328 325 323 322 321 320 318 317 320 321 319 319 319 319 320 320 319 318 319 316
305 302 295 290 292 294 305 300 306 315 321 323 322 321 322 320 324 327 326 326 327 328 328 329 329 329 330 329 329 330 328 326 324 323 324 319 318 320 321 320 320 321 322 321 321 320 320 320 318
306 301 304 299 298 295 299 307 312 315 317 320 322 322 321 319 321 326 328 329 329 329 329 328 330 330 331 331 330 329 330 328 326 326 325 322 324 323 322 321 321 322 322 326 324 320 322 317 317
308 309 298 297 291 290 298 301 299 310 313 318 319 320 321 318 321 324 327 329 330 330 330 329 331 331 332 332 330 330 331 330 328 326 324 324 325 325 324 323 323 323 328 327 324 320 316 314 313
304 301 303 301 299 293 293 298 309 312 315 311 314 318 317 316 322 324 327 329 330 330 330 329 331 331 332 328 322 324 329 330 329 326 324 324 325 326 325 325 327 325 317 313 310 310 309 309 309
308 305 303 296 296 299 298 298 315 316 318 317 315 318 319 315 323 324 325 327 329 329 329 330 328 332 332 331 322 325 324 327 327 326 326 326 325 325 326 328 322 313 310 306 305 304 304 304 306
Wind_Speed
4 3 1 5 6 5 5 3 4 3 3 4 8 11 7 3 3 4 3 12 15 13 10 11 15 14 12 13 11 10 9 10 9 8 7 7 6 6 7 7 7 8 8 8 8 7 8 8 7
3 1 5 3 6 3 4 4 5 3 9 12 13 9 4 2 4 11 9 11 14 13 7 9 16 15 13 13 12 10 8 7 6 6 6 5 4 4 4 5 5 6 7 8 7 7 8 8 8
4 2 5 4 4 3 4 4 3 4 11 9 5 5 4 5 7 11 12 17 14 11 9 10 17 15 14 13 11 9 7 6 4 5 5 3 4 5 4 5 6 6 6 6 7 7 7 8 9
2 4 5 4 3 6 4 3 5 8 3 5 10 6 5 3 3 9 16 18 13 10 9 13 16 15 15 12 10 9 7 6 4 7 5 3 4 4 5 3 4 6 7 8 7 6 6 7 9
4 3 4 1 6 6 5 1 4 4 4 6 3 4 3 3 16 21 18 15 15 9 7 10 16 15 14 13 11 9 8 7 7 6 5 4 3 2 1 2 4 6 6 6 8 9 9 9 9
3 3 3 4 5 4 6 9 7 6 8 7 7 8 6 7 21 17 18 14 12 13 8 10 16 16 15 13 11 9 8 8 6 5 4 3 3 2 3 3 3 5 6 8 9 10 10 11 10
6 4 5 2 4 4 7 5 9 8 10 4 13 6 5 5 15 16 15 12 11 10 10 9 9 12 15 13 12 11 11 9 8 6 5 5 6 6 6 5 6 5 6 9 10 11 13 14 15
5 5 3 6 6 4 7 5 8 10 3 13 13 7 6 7 9 16 13 11 10 10 10 8 6 6 6 7 12 11 11 10 8 5 5 6 9 8 8 8 8 5 7 10 12 13 14 13 12
2 3 5 9 6 5 4 5 4 4 6 2 2 6 8 10 14 12 10 6 7 7 6 6 6 6 6 5 6 9 9 7 5 2 5 6 1 3 8 8 11 9 6 9 13 10 8 8 13
3 6 6 8 6 7 5 7 9 7 5 4 8 10 11 13 14 16 12 10 8 9 8 9 7 7 6 6 4 5 3 2 2 2 5 3 4 1 2 4 8 4 7 8 8 7 9 9 5
1 1 6 5 3 5 10 3 3 15 6 15 18 12 9 9 9 12 9 12 12 11 8 10 9 8 8 5 4 2 2 2 2 4 4 5 3 4 4 3 3 3 4 4 5 5 4 7 5
2 7 5 6 7 6 3 3 8 5 2 12 15 14 6 8 10 9 8 8 10 9 10 10 10 9 6 4 4 5 4 3 2 2 4 4 2 4 5 3 2 2 4 5 5 3 5 7 7
5 4 2 4 7 7 10 16 13 20 14 7 10 8 9 9 9 7 9 8 9 8 10 9 8 8 6 6 4 3 4 4 4 3 3 4 2 3 3 2 2 3 3 4 4 4 5 5 6
8 4 1 5 5 9 10 5 16 17 15 5 7 9 10 10 10 7 8 12 9 9 10 10 10 8 8 6 6 5 5 6 4 4 4 4 3 3 3 2 3 4 3 2 2 3 4 4 4
2 5 13 8 1 6 8 7 7 4 3 11 13 10 10 11 9 12 15 16 13 10 11 10 9 8 8 7 5 4 5 5 4 4 5 4 3 4 3 3 1 3 2 3 4 5 5 5 5
4 6 3 9 3 7 3 4 5 4 5 12 16 13 8 8 13 10 13 14 10 12 11 8 8 8 7 7 4 4 5 4 4 4 3 5 4 3 2 3 2 2 2 1 3 3 4 4 4
4 3 3 4 2 7 11 2 13 12 12 8 10 12 10 7 9 9 11 13 12 12 12 8 8 8 7 5 5 4 3 2 4 3 4 5 5 4 3 3 1 2 2 3 3 2 2 3 5
7 3 2 4 4 20 16 14 10 8 6 9 11 11 2 9 12 13 8 9 7 7 8 8 6 7 6 4 3 2 1 3 3 1 4 5 4 5 3 3 3 3 1 2 3 3 2 1 3
5 0 7 2 10 8 9 4 4 4 6 4 14 4 8 13 15 7 7 9 8 7 8 8 8 5 4 2 3 2 2 2 2 3 4 6 5 6 3 3 3 3 4 2 1 2 4 3 5
6 9 4 3 2 6 4 5 4 4 2 3 11 7 10 11 15 7 9 8 7 7 7 7 6 6 3 1 2 3 2 3 3 2 5 6 6 6 4 5 4 3 2 2 2 1 2 1 4
1 7 7 7 4 5 7 3 3 2 7 5 6 7 10 11 13 7 6 6 7 7 7 8 7 5 4 4 0 2 1 1 1 1 2 4 6 4 4 5 4 4 3 2 1 2 2 1 2
1 4 9 11 4 4 1 2 7 5 8 5 6 7 7 5 4 5 8 7 8 6 6 7 6 5 4 5 2 3 2 1 3 2 3 4 5 5 5 5 5 4 3 3 3 3 2 3 3
8 4 11 5 6 7 4 7 8 7 6 5 14 10 9 3 3 8 10 11 11 10 8 7 7 6 5 6 5 3 3 3 2 2 1 2 4 5 5 4 5 4 4 3 3 3 4 2 2
5 8 8 6 4 5 2 8 6 5 1 6 12 14 10 7 6 6 7 11 10 9 8 7 8 7 7 7 7 6 5 4 3 3 3 2 2 3 5 4 5 5 5 5 5 4 5 5 4
7 7 4 6 6 2 3 5 5 4 5 13 14 13 10 7 7 9 10 8 10 10 9 7 8 8 8 7 6 7 7 6 5 3 2 3 1 2 6 5 5 5 6 6 5 4 5 5 4
5 8 7 3 2 2 6 2 2 8 9 14 19 12 6 7 8 9 11 11 12 13 12 10 9 8 7 7 9 8 7 4 4 4 3 3 3 3 3 6 6 7 6 6 5 3 4 4 4
3 5 2 7 4 5 3 1 5 7 9 12 11 8 9 8 11 8 9 12 14 13 13 14 12 8 8 10 6 6 6 6 5 5 5 4 3 4 6 7 7 7 6 6 5 3 3 3 4
5 2 4 4 4 2 4 4 4 8 12 10 13 12 15 6 9 8 11 11 12 13 13 13 13 12 10 10 5 5 7 5 6 4 7 5 5 4 6 7 7 3 4 1 3 4 4 4 3
4 2 7 4 5 7 4 6 8 9 10 7 11 9 6 7 9 9 10 10 11 10 12 12 11 11 10 9 6 7 6 7 6 5 6 6 5 6 7 7 3 4 6 6 6 5 4 4 4
3 3 6 6 2 2 4 6 6 10 7 6 9 8 9 9 12 10 10 9 9 11 11 10 8 11 13 11 7 8 5 5 5 6 7 7 7 5 7 3 6 6 6 5 6 5 3 4 4
Wind_Direction
196 215 161 47 60 56 288 264 162 179 59 25 64 93 118 81 141 202 109 159 135 153 156 153 140 128 124 116 107 100 95 95 106 108 102 90 75 59 47 39 30 32 21 26 13 15 4 358 2
231 45 31 68 76 52 272 275 168 153 96 107 90 101 63 78 105 116 106 142 153 146 150 153 139 133 127 117 108 101 93 95 108 119 108 91 67 40 48 42 37 27 12 4 356 356 353 347 342
188 302 67 71 92 191 252 248 192 130 140 133 104 93 95 135 102 148 139 151 144 149 160 159 141 137 130 121 114 103 98 95 115 130 117 87 44 33 40 39 27 8 1 2 354 349 343 339 335
132 21 36 70 246 241 244 235 156 119 85 46 117 65 53 122 110 130 139 143 141 157 157 149 139 139 133 126 120 115 107 109 99 142 130 98 67 52 60 32 7 353 348 344 347 345 336 330 327
43 33 57 310 255 275 225 210 112 88 100 106 107 101 78 75 116 135 142 147 156 151 150 141 146 147 141 135 130 125 121 121 112 113 125 117 106 71 101 325 350 347 347 333 339 335 330 327 323
74 115 8 350 243 203 46 98 107 85 111 123 100 118 172 157 130 154 151 157 158 148 145 153 155 155 149 143 140 138 144 139 134 144 155 161 168 212 238 277 307 335 335 331 334 336 334 333 331
133 94 224 306 269 88 142 147 119 137 158 178 143 128 169 182 148 154 152 150 145 144 147 155 158 164 157 151 154 155 160 155 155 172 196 207 216 230 228 243 268 302 317 318 323 329 329 330 330
155 128 257 238 219 187 171 135 170 126 158 148 149 152 183 210 157 143 147 136 142 149 158 158 161 152 156 168 167 174 173 163 163 181 219 240 235 235 248 249 260 287 299 311 319 327 326 324 346
158 77 235 188 175 202 212 135 216 155 121 52 172 130 157 153 122 125 129 111 141 157 156 155 164 157 172 177 186 189 187 174 185 203 19 18 271 248 264 247 248 270 285 306 327 322 325 349 346
148 141 240 194 165 168 217 167 164 121 115 66 83 101 131 136 139 135 152 163 170 167 171 171 172 173 180 179 190 191 229 189 228 121 64 36 51 319 40 223 249 307 328 330 2 358 354 2 335
222 118 270 11 251 124 181 237 181 142 162 158 149 155 145 137 144 155 160 161 170 175 173 181 177 185 184 190 177 198 203 204 218 90 81 69 41 20 48 31 41 29 6 5 2 347 358 342 336
344 36 31 327 359 3 90 19 61 28 205 160 150 154 149 148 160 165 164 162 145 160 179 179 180 181 183 171 175 187 186 174 206 107 88 80 47 35 35 24 31 30 24 5 2 1 348 353 356
40 324 260 287 348 96 66 45 73 41 12 126 130 153 158 168 177 185 167 153 160 154 159 157 151 156 165 168 167 161 172 166 162 153 119 112 73 73 54 42 343 24 21 16 357 18 7 1 347
222 209 243 75 91 59 83 41 75 5 334 1 155 181 185 186 182 155 160 169 175 157 157 149 149 150 147 145 156 162 138 161 157 146 173 138 126 97 74 95 345 40 12 35 348 22 13 352 340
318 28 340 90 273 117 108 30 60 45 307 41 348 213 197 197 192 187 182 177 173 168 153 154 145 147 135 139 140 135 149 152 163 170 181 171 180 111 123 143 346 45 58 36 2 5 14 359 347
40 44 51 349 338 40 21 337 212 22 59 60 350 337 308 217 203 197 182 177 176 154 155 158 146 145 143 125 124 132 124 149 171 186 182 207 205 145 133 155 6 64 69 10 26 18 357 352 350
330 230 120 323 29 121 109 345 324 347 16 29 15 325 311 319 282 230 188 179 166 158 150 143 138 141 131 116 107 113 139 195 189 174 210 199 200 177 128 138 88 66 57 16 354 3 35 346 344
263 281 174 172 71 104 114 179 169 86 328 322 303 258 184 336 270 234 180 157 141 136 143 136 128 123 114 100 90 63 4 283 277 188 221 207 177 175 132 104 103 95 69 17 358 11 332 315 326
208 73 132 96 127 72 134 111 304 98 241 293 279 204 305 306 302 166 120 134 137 138 131 128 121 127 121 108 120 62 255 282 276 244 214 217 178 167 171 116 131 121 97 190 9 334 350 344 345
107 119 119 92 64 79 211 161 253 97 36 291 277 326 300 287 310 115 124 141 147 104 99 106 119 143 164 162 170 169 183 229 225 255 183 197 178 178 174 154 186 139 153 24 46 30 349 325 18
43 145 188 144 134 71 156 69 64 17 184 235 235 255 277 264 263 121 132 126 106 99 124 142 157 156 186 171 315 354 339 319 336 269 159 206 202 184 165 189 184 194 145 127 169 165 86 347 318
336 195 110 130 121 114 143 337 1 309 325 26 298 303 294 318 242 125 100 100 111 129 148 153 154 174 211 187 172 195 191 217 242 220 207 193 222 206 197 186 182 200 162 195 212 189 188 155 276
239 45 128 116 94 106 333 69 290 322 347 282 300 303 334 271 151 119 138 144 153 153 170 161 169 193 213 199 198 181 199 225 233 133 151 269 265 230 215 195 178 186 207 220 218 240 233 206 198
191 83 43 56 75 57 216 126 280 255 258 310 275 293 299 228 130 129 140 141 156 164 161 168 178 200 211 202 211 202 207 189 163 187 215 232 268 226 227 198 192 197 215 227 227 234 235 236 225
94 58 10 13 20 191 329 85 214 219 184 222 254 278 302 245 159 157 150 163 163 172 179 183 189 208 210 206 205 212 217 211 205 197 209 173 273 198 220 187 206 218 225 238 236 236 244 242 230
90 136 147 183 177 184 355 143 210 216 218 244 250 254 276 301 246 175 175 181 174 183 183 191 197 209 201 209 215 211 211 216 213 193 216 216 202 210 203 209 223 231 235 242 238 233 248 246 256
344 44 145 101 60 76 272 348 327 279 252 263 269 294 273 255 237 179 186 192 180 184 190 193 201 196 190 217 220 224 216 217 224 209 202 214 206 205 216 221 230 241 248 243 244 246 287 309 289
107 164 36 17 105 141 308 291 222 255 264 258 263 256 265 234 210 193 197 194 192 186 192 196 198 191 198 206 189 217 229 215 221 231 216 221 225 233 221 231 234 281 268 343 88 70 33 38 358
330 53 53 108 133 144 167 255 226 235 223 249 233 231 268 230 196 199 205 200 200 193 192 197 198 185 188 195 165 203 226 205 212 217 238 236 255 239 244 250 264 108 85 64 69 64 36 29 359
148 181 136 117 240 200 147 260 233 245 254 239 269 275 285 223 204 208 211 200 203 205 197 194 183 189 187 199 171 211 201 207 207 222 226 219 231 238 240 206 125 95 93 86 74 61 23 21 349